SCP
-0 -0 -0 -0 -0 0 0 0 0 0 0 0 0 0 0 0 0 0 0 0 0 0 0 -0 -0 0 0 0 -0 -0 0 -0 -0 -0 0 0 0 0 0 0 0 0 0 0
-0 -0 -0 -0 -0 0 0 0 0 0 0 0 0 0 0 0 0 0 0 0 0 0 0 0 0 0 0 0 0 0 0 0 0 0 0 0 0 0 0 0 0 0 0 0
-0 -0 -0 -0 -0 0 0 0 0 0 0 0 0 0 0 0 0 0 0 0 0 0 0 0 0 0 0 0 0 0 0 0 0 -0 -0 -0 0 0 0 0 0 0 0 0
-0 -0 -0 -0 -0 -0 0 0 0 0 0 0 0 0 0 0 0 0 0 0 0 0 0 0 0 0 0 0 0 0 0 -0 -0 0 0 0 0 0 0 0 0 0 0 0
-0 -0 -0 -0 -0 -0 0 0 0 0 0 0 0 0 0 0 0 0 0 0 0 0 0 0 0 0 0 0 0 0 0 -0 0 0 0 0 0 0 0 0 0 0 0 0
-0 -0 -0 -0 -0 -0 0 0 0 0 0 0 0 0 0 0 0 0 0 0 0 0 0 0 0 0 0 0 0 0 -0 0 0 0 0 0 0 0 0 0 0 0 0 0
-0 -0 -0 -0 -0 -0 0 0 0 0 0 0 0 0 0 0 0 0 0 0 0 0 0 0 0 0 0 0 0 0 0 0 0 0 0 0 0 0 0 0 0 0 0 0
-0 -0 -0 -0 -0 -0 0 0 0 0 0 0 0 0 0 0 0 0 0 0 0 0 0 0 0 0 0 0 0 0 0 0 0 0 0 0 0 0 0 0 0 0 0 0
-0 -0 -0 -0 -0 -0 0 0 0 0 0 0 0 0 0 0 0 0 0 0 0 0 0 0 0 0 0 0 0 0 0 0 0 0 0 0 0 0 0 0 0 0 0 0
-0 -0 -0 -0 -0 -0 0 0 0 0 0 0 0 0 0 0 0 0 0 0 0 0 0 0 0 0 0 0 0 0 0 0 0 0 0 0 0 0 0 0 0 0 0 0
-0 -0 -0 -0 0 0 0 0 0 0 0 0 0 0 0 0 0 0 0 0 0 0 0 0 0 0 0 0 0 0 0 0 0 0 0 0 0 0 0 0 0 0 0 0
-0 0 0 0 0 0 0 0 0 0 0 0 0 0 0 0 0 0 0 0 0 0 0 0 0 0 0 0 0 0 0 0 0 0 0 0 0 0 0 0 0 0 0 0
0 0 0 0 0 0 0 0 0 0 0 0 0 0 0 0 0 0 0 0 0 0 0 0 0 0 0 0 0 0 0 0 0 0 0 0 0 0 0 0 0 0 0 0
0 0 0 0 0 0 0 0 0 0 0 0 0 0 0 0 0 0 0 0 0 0 0 0 0 0 0 0 0 0 0 0 0 0 0 0 0 0 0 0 0 0 0 0
0 0 0 0 0 0 0 0 0 0 0 0 0 0 0 0 0 0 0 0 0 0 0 0 0 0 0 0 0 0 0 0 0 0 0 0 0 0 0 0 0 0 0 0
0 0 0 0 0 0 0 0 0 0 0 0 0 0 0 0 0 0 0 0 0 0 0 0 0 0 0 0 0 0 0 0 0 0 0 0 0 0 0 0 0 0 0 0
0 0 0 0 0 0 0 0 0 0 0 0 0 0 0 0 0 0 0 0 0 0 0 0 0 0 0 0 0 0 0 0 0 0 0 0 0 0 0 0 0 0 0 0
0 0 0 0 0 0 0 0 0 0 0 0 0 0 0 0 0 0 0 0 0 0 0 0 0 0 0 0 0 0 0 0 0 0 0 0 0 0 0 0 0 0 0 0
0 0 0 0 0 0 0 0 0 0 0 0 0 0 0 0 0 0 0 0 0 0 0 0 0 0 0 0 0 0 0 0 0 0 0 0 0 0 0 0 0 0 0 0
0 0 0 0 0 0 0 0 0 0 0 0 0 0 0 0 0 0 0 0 0 0 0 0 0 0 0 0 0 0 0 0 0 0 0 0 0 0 0 0 0 0 0 0
0 0 0 0 0 0 0 0 0 0 0 0 0 0 0 0 0 0 0 0 0 0 0 0 0 0 0 0 0 0 0 0 0 0 0 0 0 0 0 0 0 0 0 0
0 0 0 0 0 0 0 0 0 0 0 0 0 0 0 0 0 0 0 0 0 0 0 0 0 0 0 0 0 0 0 0 0 0 0 -0 0 0 0 0 0 0 0 0
0 0 0 0 0 0 0 0 0 0 0 0 0 0 0 0 0 0 0 0 0 0 0 0 0 0 0 0 0 0 0 0 0 0 0 0 -0 0 0 0 0 0 0 0
0 0 0 0 0 0 0 0 0 0 0 0 0 0 0 0 0 0 0 0 0 0 0 0 0 0 0 0 0 0 0 0 0 0 0 0 0 0 0 0 0 0 0 0
0 0 0 0 0 0 0 0 0 0 0 0 0 0 0 0 0 0 0 0 0 0 0 0 0 0 0 0 0 0 0 0 0 0 0 0 0 0 0 0 0 0 0 0
0 0 0 0 0 0 0 0 0 0 0 0 0 0 0 0 0 0 0 0 0 0 0 0 0 0 0 0 0 0 -0 0 0 0 0 0 0 0 0 0 0 0 0 0
0 0 0 0 0 0 0 0 0 0 0 0 0 0 0 0 0 0 0 0 0 0 0 0 0 0 0 0 0 -0 -0 -0 0 0 0 0 0 0 0 0 0 0 0 0
Wind_Speed_500mb
38 30 21 14 17 24 33 19 8 21 17 14 5 8 2 1 8 7 4 2 2 11 9 13 11 8 5 8 10 10 1 14 20 21 6 7 18 23 17 18 22 19 17 27
40 32 23 11 11 25 23 11 7 16 16 11 14 8 7 3 7 5 8 7 2 3 7 10 12 8 5 7 7 5 6 17 19 23 22 17 17 16 22 20 23 29 23 20
42 35 26 17 5 20 20 9 9 11 13 5 10 10 8 12 5 5 3 5 7 11 12 8 6 14 8 1 5 3 7 25 25 26 29 18 24 24 22 28 22 29 31 39
45 38 30 23 3 13 14 3 4 1 14 16 10 7 4 15 15 6 9 11 16 12 11 14 16 11 14 20 11 9 11 25 23 28 24 26 32 32 31 34 32 35 42 44
50 44 36 28 9 7 5 1 3 7 7 7 13 10 16 16 10 11 14 18 11 12 17 14 13 13 14 20 19 21 17 26 21 33 34 34 38 37 40 43 43 44 40 38
47 48 42 33 27 6 8 5 4 3 12 15 15 17 15 16 7 9 11 11 14 17 9 7 14 18 21 21 19 25 28 24 26 34 32 29 31 34 34 28 29 31 29 30
42 42 43 40 33 28 22 11 4 8 10 14 16 7 14 16 15 17 12 13 17 5 3 11 21 27 30 29 30 26 27 22 22 25 25 29 9 5 10 24 28 30 30 25
44 40 38 38 34 28 21 18 7 6 11 13 14 18 17 14 13 15 18 16 4 2 10 16 15 20 24 32 28 18 23 22 16 14 20 28 27 19 6 17 27 27 17 19
42 39 35 33 32 27 19 16 11 4 11 5 7 12 20 20 20 18 18 9 8 11 16 16 21 16 9 10 13 13 13 15 17 17 21 22 7 7 6 11 24 21 16 23
41 39 36 31 29 27 22 14 13 5 10 9 7 11 11 10 14 13 1 15 14 18 18 21 25 27 12 16 20 13 20 18 27 25 25 21 8 8 3 19 8 25 26 28
44 41 37 33 28 25 22 15 13 7 9 22 16 15 18 14 15 17 9 9 15 13 21 18 18 15 17 22 29 16 20 15 19 19 26 30 15 12 14 20 31 27 26 26
42 42 40 36 31 25 21 13 18 16 15 18 25 28 31 31 22 19 18 15 1 10 9 8 9 11 8 19 21 13 20 25 17 10 5 15 5 18 28 23 23 24 24 27
41 40 40 38 32 29 25 21 18 20 13 26 17 9 12 29 49 30 27 23 21 11 11 14 10 14 10 20 19 29 22 16 17 25 20 31 28 27 32 31 26 23 21 23
43 42 42 38 32 26 26 23 19 12 9 11 3 10 6 7 13 30 49 40 12 15 14 26 16 18 14 19 20 18 17 4 19 28 34 39 43 39 30 25 24 21 19 24
40 40 41 38 31 23 23 22 14 7 3 12 22 37 19 15 23 37 28 41 52 29 24 15 18 31 16 21 18 22 31 27 24 25 29 28 35 32 33 24 26 23 22 25
43 46 43 33 25 21 14 6 10 10 8 8 8 10 5 9 7 9 24 21 33 38 26 24 27 25 21 13 19 21 23 24 29 35 33 34 33 40 41 40 35 26 25 25
46 47 36 24 19 12 1 2 2 6 13 7 13 8 2 7 6 6 12 27 21 26 38 38 35 29 19 21 26 33 36 37 37 32 29 32 35 31 28 27 32 27 26 25
48 38 26 14 8 6 7 6 8 8 5 7 7 8 7 13 6 6 9 13 24 21 26 19 26 24 14 17 29 33 33 24 25 26 25 33 37 35 37 37 37 35 32 30
44 29 12 5 6 2 6 12 10 7 6 10 6 7 7 18 7 8 9 14 12 15 15 29 17 21 18 17 26 28 18 21 27 24 27 30 36 37 33 34 37 36 38 34
36 14 6 2 4 10 12 7 1 3 6 8 9 8 11 19 17 9 8 13 11 11 14 11 13 25 42 41 26 24 20 19 17 21 29 30 36 35 32 30 27 30 30 29
26 17 4 11 11 3 3 5 8 7 9 11 9 10 15 12 12 11 7 8 4 9 8 9 10 11 16 14 15 9 10 15 19 24 32 37 41 42 36 32 28 29 32 32
29 23 21 7 3 7 7 6 6 9 2 4 8 12 19 13 7 10 8 8 5 10 8 7 9 1 11 11 7 9 14 16 22 26 34 37 36 34 36 34 30 26 28 30
13 7 5 5 7 3 9 10 7 3 2 2 15 17 15 7 10 11 7 9 11 2 7 10 9 15 7 2 5 12 15 20 23 27 30 33 35 32 32 34 29 25 26 23
4 4 8 9 8 7 3 3 3 6 11 17 21 24 8 10 7 5 9 5 6 7 9 14 4 12 4 6 11 15 17 18 20 23 25 30 33 32 30 30 27 25 28 23
4 5 8 8 5 8 10 10 12 10 17 18 24 20 14 10 9 4 9 8 9 5 6 10 14 3 4 10 15 17 18 18 20 22 25 30 32 30 20 15 18 19 14 11
5 8 10 11 13 10 8 12 15 16 15 25 13 10 10 11 6 10 10 3 3 8 13 48 26 12 10 10 12 15 18 21 24 26 26 27 27 26 20 13 6 7 8 8
7 10 14 18 19 19 16 14 17 14 19 11 11 9 3 2 9 11 7 6 9 29 46 35 30 25 18 19 16 19 22 24 26 28 23 21 22 22 17 13 11 6 6 3
Wind_Direction_500mb
21 21 28 53 133 142 149 168 186 183 176 216 229 203 130 189 129 165 164 244 321 232 199 216 239 268 338 355 284 262 348 298 283 304 62 273 277 286 276 284 292 287 294 285
22 21 23 43 124 163 161 179 113 170 179 212 199 140 177 215 185 140 172 151 307 199 186 226 252 228 105 352 244 302 201 259 275 249 185 197 237 234 263 286 286 270 284 290
23 24 22 21 94 172 172 187 154 163 203 286 272 188 173 161 138 135 165 138 202 199 212 204 224 229 174 145 232 226 232 264 273 282 312 321 287 260 244 274 280 293 286 304
21 27 26 21 93 164 175 226 119 178 183 202 207 238 207 196 181 199 204 190 239 224 229 226 232 237 227 196 174 211 261 274 283 276 284 276 276 280 280 272 268 276 296 301
18 22 29 31 46 144 162 221 209 180 170 166 209 162 202 222 170 225 199 250 198 209 258 254 295 261 250 269 182 251 251 275 280 276 276 271 270 272 276 276 279 280 282 289
17 18 24 33 40 130 72 77 118 265 152 195 216 209 215 216 211 202 263 252 220 228 255 290 295 278 282 280 268 280 283 280 270 271 288 298 281 268 265 272 274 284 286 308
15 17 19 26 36 51 70 54 83 267 192 227 222 232 227 230 229 276 211 226 238 63 347 287 272 264 258 255 257 254 261 255 267 271 280 259 314 47 311 297 293 287 292 304
12 15 18 21 27 35 46 43 60 333 260 261 216 232 230 224 222 240 249 225 250 218 249 266 262 249 239 250 248 247 248 248 247 252 244 268 283 290 293 326 305 306 336 336
8 10 13 15 18 23 31 32 33 6 301 195 291 256 236 249 235 212 236 219 214 221 264 252 253 255 268 230 189 228 220 238 251 239 267 277 325 107 21 311 277 61 352 343
7 6 6 8 9 9 12 14 13 11 279 265 233 231 259 230 252 265 77 215 211 222 244 249 252 258 226 246 234 192 212 229 237 242 254 265 317 122 166 257 5 344 345 337
4 2 0 360 3 1 1 348 351 356 282 274 259 241 235 231 236 253 118 216 207 220 239 250 249 247 236 250 254 243 237 235 243 240 272 269 115 147 247 344 324 323 321 324
357 357 356 353 352 354 350 347 329 315 267 263 265 262 246 240 251 262 219 278 293 250 242 227 270 245 249 256 264 184 250 248 282 256 289 116 223 286 301 296 286 299 310 318
350 350 349 347 344 341 339 336 328 331 297 294 276 282 265 249 236 228 249 237 248 243 258 289 257 254 269 250 237 263 232 239 251 265 247 261 283 284 290 283 273 290 305 306
344 344 341 338 337 334 329 331 323 326 295 285 283 301 313 288 225 226 231 239 247 241 253 254 260 255 219 262 275 270 274 188 256 263 267 276 272 277 283 276 275 274 287 299
338 336 332 329 328 327 324 325 331 302 237 312 293 293 282 261 258 243 242 228 227 243 240 237 245 252 269 254 273 262 258 249 260 270 280 288 283 282 280 282 287 274 284 298
337 333 329 328 322 323 339 327 25 53 28 332 297 313 293 310 310 228 219 215 219 221 231 244 248 245 234 258 246 268 276 265 266 276 275 274 279 280 276 272 275 271 274 282
336 330 329 328 323 322 223 253 249 323 341 306 290 282 267 320 279 218 207 211 211 216 226 239 247 236 217 255 261 266 268 270 277 279 276 271 270 279 284 277 262 253 272 270
339 330 329 339 2 48 27 334 307 290 293 264 280 286 258 2 290 234 204 205 209 222 234 233 234 212 236 256 258 268 273 278 272 268 264 269 285 287 282 273 262 258 264 268
343 336 343 22 45 21 260 313 308 273 217 295 260 306 345 345 317 285 217 214 218 215 229 230 231 226 220 254 257 260 261 259 280 275 273 278 280 288 291 283 261 256 267 265
343 348 357 211 261 311 312 331 97 215 216 237 265 278 277 319 312 280 276 197 248 225 219 175 232 246 257 256 265 258 253 260 266 275 283 288 288 290 290 294 274 258 261 260
359 351 307 270 285 300 256 249 240 176 225 203 242 288 313 308 284 309 262 307 281 254 185 227 222 239 225 214 214 213 236 257 272 280 285 291 290 280 282 287 285 274 268 266
326 311 304 304 261 224 241 224 185 230 286 161 280 311 296 293 263 262 247 264 222 255 119 247 257 287 128 167 210 266 272 269 285 291 295 296 292 282 275 276 281 284 277 269
326 353 322 261 191 232 228 193 191 206 212 291 319 312 302 254 239 260 258 238 246 66 231 251 278 92 154 180 301 297 283 278 286 298 303 305 301 292 274 270 272 280 287 278
296 287 290 233 184 234 255 343 328 353 303 320 316 302 280 278 245 293 268 243 263 250 263 268 34 139 186 319 321 317 309 297 299 304 312 317 318 305 280 265 269 275 280 272
278 268 246 231 276 248 244 274 284 266 308 312 315 285 243 257 256 148 298 236 233 216 332 30 67 151 312 327 328 322 314 307 305 314 318 322 328 326 315 281 268 270 269 241
252 242 263 243 261 253 249 258 269 290 300 304 267 259 257 233 279 218 212 265 331 7 344 336 338 313 292 301 317 315 316 314 312 313 312 320 330 337 340 348 301 256 235 245
248 247 246 265 281 278 284 280 272 283 293 272 284 254 317 17 9 310 352 359 340 333 327 310 301 306 303 308 317 311 313 313 313 313 312 316 328 335 343 339 326 287 222 262
Wind_Speed_850mb
38 30 21 14 17 24 33 19 8 21 17 14 5 8 2 1 8 7 4 2 2 11 9 13 11 8 5 8 10 10 1 14 20 21 6 7 18 23 17 18 22 19 17 27
40 32 23 11 11 25 23 11 7 16 16 11 14 8 7 3 7 5 8 7 2 3 7 10 12 8 5 7 7 5 6 17 19 23 22 17 17 16 22 20 23 29 23 20
42 35 26 17 5 20 20 9 9 11 13 5 10 10 8 12 5 5 3 5 7 11 12 8 6 14 8 1 5 3 7 25 25 26 29 18 24 24 22 28 22 29 31 39
45 38 30 23 3 13 14 3 4 1 14 16 10 7 4 15 15 6 9 11 16 12 11 14 16 11 14 20 11 9 11 25 23 28 24 26 32 32 31 34 32 35 42 44
50 44 36 28 9 7 5 1 3 7 7 7 13 10 16 16 10 11 14 18 11 12 17 14 13 13 14 20 19 21 17 26 21 33 34 34 38 37 40 43 43 44 40 38
47 48 42 33 27 6 8 5 4 3 12 15 15 17 15 16 7 9 11 11 14 17 9 7 14 18 21 21 19 25 28 24 26 34 32 29 31 34 34 28 29 31 29 30
42 42 43 40 33 28 22 11 4 8 10 14 16 7 14 16 15 17 12 13 17 5 3 11 21 27 30 29 30 26 27 22 22 25 25 29 9 5 10 24 28 30 30 25
44 40 38 38 34 28 21 18 7 6 11 13 14 18 17 14 13 15 18 16 4 2 10 16 15 20 24 32 28 18 23 22 16 14 20 28 27 19 6 17 27 27 17 19
42 39 35 33 32 27 19 16 11 4 11 5 7 12 20 20 20 18 18 9 8 11 16 16 21 16 9 10 13 13 13 15 17 17 21 22 7 7 6 11 24 21 16 23
41 39 36 31 29 27 22 14 13 5 10 9 7 11 11 10 14 13 1 15 14 18 18 21 25 27 12 16 20 13 20 18 27 25 25 21 8 8 3 19 8 25 26 28
44 41 37 33 28 25 22 15 13 7 9 22 16 15 18 14 15 17 9 9 15 13 21 18 18 15 17 22 29 16 20 15 19 19 26 30 15 12 14 20 31 27 26 26
42 42 40 36 31 25 21 13 18 16 15 18 25 28 31 31 22 19 18 15 1 10 9 8 9 11 8 19 21 13 20 25 17 10 5 15 5 18 28 23 23 24 24 27
41 40 40 38 32 29 25 21 18 20 13 26 17 9 12 29 49 30 27 23 21 11 11 14 10 14 10 20 19 29 22 16 17 25 20 31 28 27 32 31 26 23 21 23
43 42 42 38 32 26 26 23 19 12 9 11 3 10 6 7 13 30 49 40 12 15 14 26 16 18 14 19 20 18 17 4 19 28 34 39 43 39 30 25 24 21 19 24
40 40 41 38 31 23 23 22 14 7 3 12 22 37 19 15 23 37 28 41 52 29 24 15 18 31 16 21 18 22 31 27 24 25 29 28 35 32 33 24 26 23 22 25
43 46 43 33 25 21 14 6 10 10 8 8 8 10 5 9 7 9 24 21 33 38 26 24 27 25 21 13 19 21 23 24 29 35 33 34 33 40 41 40 35 26 25 25
46 47 36 24 19 12 1 2 2 6 13 7 13 8 2 7 6 6 12 27 21 26 38 38 35 29 19 21 26 33 36 37 37 32 29 32 35 31 28 27 32 27 26 25
48 38 26 14 8 6 7 6 8 8 5 7 7 8 7 13 6 6 9 13 24 21 26 19 26 24 14 17 29 33 33 24 25 26 25 33 37 35 37 37 37 35 32 30
44 29 12 5 6 2 6 12 10 7 6 10 6 7 7 18 7 8 9 14 12 15 15 29 17 21 18 17 26 28 18 21 27 24 27 30 36 37 33 34 37 36 38 34
36 14 6 2 4 10 12 7 1 3 6 8 9 8 11 19 17 9 8 13 11 11 14 11 13 25 42 41 26 24 20 19 17 21 29 30 36 35 32 30 27 30 30 29
26 17 4 11 11 3 3 5 8 7 9 11 9 10 15 12 12 11 7 8 4 9 8 9 10 11 16 14 15 9 10 15 19 24 32 37 41 42 36 32 28 29 32 32
29 23 21 7 3 7 7 6 6 9 2 4 8 12 19 13 7 10 8 8 5 10 8 7 9 1 11 11 7 9 14 16 22 26 34 37 36 34 36 34 30 26 28 30
13 7 5 5 7 3 9 10 7 3 2 2 15 17 15 7 10 11 7 9 11 2 7 10 9 15 7 2 5 12 15 20 23 27 30 33 35 32 32 34 29 25 26 23
4 4 8 9 8 7 3 3 3 6 11 17 21 24 8 10 7 5 9 5 6 7 9 14 4 12 4 6 11 15 17 18 20 23 25 30 33 32 30 30 27 25 28 23
4 5 8 8 5 8 10 10 12 10 17 18 24 20 14 10 9 4 9 8 9 5 6 10 14 3 4 10 15 17 18 18 20 22 25 30 32 30 20 15 18 19 14 11
5 8 10 11 13 10 8 12 15 16 15 25 13 10 10 11 6 10 10 3 3 8 13 48 26 12 10 10 12 15 18 21 24 26 26 27 27 26 20 13 6 7 8 8
7 10 14 18 19 19 16 14 17 14 19 11 11 9 3 2 9 11 7 6 9 29 46 35 30 25 18 19 16 19 22 24 26 28 23 21 22 22 17 13 11 6 6 3
Wind_Direction_850mb
21 21 28 53 133 142 149 168 186 183 176 216 229 203 130 189 129 165 164 244 321 232 199 216 239 268 338 355 284 262 348 298 283 304 62 273 277 286 276 284 292 287 294 285
22 21 23 43 124 163 161 179 113 170 179 212 199 140 177 215 185 140 172 151 307 199 186 226 252 228 105 352 244 302 201 259 275 249 185 197 237 234 263 286 286 270 284 290
23 24 22 21 94 172 172 187 154 163 203 286 272 188 173 161 138 135 165 138 202 199 212 204 224 229 174 145 232 226 232 264 273 282 312 321 287 260 244 274 280 293 286 304
21 27 26 21 93 164 175 226 119 178 183 202 207 238 207 196 181 199 204 190 239 224 229 226 232 237 227 196 174 211 261 274 283 276 284 276 276 280 280 272 268 276 296 301
18 22 29 31 46 144 162 221 209 180 170 166 209 162 202 222 170 225 199 250 198 209 258 254 295 261 250 269 182 251 251 275 280 276 276 271 270 272 276 276 279 280 282 289
17 18 24 33 40 130 72 77 118 265 152 195 216 209 215 216 211 202 263 252 220 228 255 290 295 278 282 280 268 280 283 280 270 271 288 298 281 268 265 272 274 284 286 308
15 17 19 26 36 51 70 54 83 267 192 227 222 232 227 230 229 276 211 226 238 63 347 287 272 264 258 255 257 254 261 255 267 271 280 259 314 47 311 297 293 287 292 304
12 15 18 21 27 35 46 43 60 333 260 261 216 232 230 224 222 240 249 225 250 218 249 266 262 249 239 250 248 247 248 248 247 252 244 268 283 290 293 326 305 306 336 336
8 10 13 15 18 23 31 32 33 6 301 195 291 256 236 249 235 212 236 219 214 221 264 252 253 255 268 230 189 228 220 238 251 239 267 277 325 107 21 311 277 61 352 343
7 6 6 8 9 9 12 14 13 11 279 265 233 231 259 230 252 265 77 215 211 222 244 249 252 258 226 246 234 192 212 229 237 242 254 265 317 122 166 257 5 344 345 337
4 2 0 360 3 1 1 348 351 356 282 274 259 241 235 231 236 253 118 216 207 220 239 250 249 247 236 250 254 243 237 235 243 240 272 269 115 147 247 344 324 323 321 324
357 357 356 353 352 354 350 347 329 315 267 263 265 262 246 240 251 262 219 278 293 250 242 227 270 245 249 256 264 184 250 248 282 256 289 116 223 286 301 296 286 299 310 318
350 350 349 347 344 341 339 336 328 331 297 294 276 282 265 249 236 228 249 237 248 243 258 289 257 254 269 250 237 263 232 239 251 265 247 261 283 284 290 283 273 290 305 306
344 344 341 338 337 334 329 331 323 326 295 285 283 301 313 288 225 226 231 239 247 241 253 254 260 255 219 262 275 270 274 188 256 263 267 276 272 277 283 276 275 274 287 299
338 336 332 329 328 327 324 325 331 302 237 312 293 293 282 261 258 243 242 228 227 243 240 237 245 252 269 254 273 262 258 249 260 270 280 288 283 282 280 282 287 274 284 298
337 333 329 328 322 323 339 327 25 53 28 332 297 313 293 310 310 228 219 215 219 221 231 244 248 245 234 258 246 268 276 265 266 276 275 274 279 280 276 272 275 271 274 282
336 330 329 328 323 322 223 253 249 323 341 306 290 282 267 320 279 218 207 211 211 216 226 239 247 236 217 255 261 266 268 270 277 279 276 271 270 279 284 277 262 253 272 270
339 330 329 339 2 48 27 334 307 290 293 264 280 286 258 2 290 234 204 205 209 222 234 233 234 212 236 256 258 268 273 278 272 268 264 269 285 287 282 273 262 258 264 268
343 336 343 22 45 21 260 313 308 273 217 295 260 306 345 345 317 285 217 214 218 215 229 230 231 226 220 254 257 260 261 259 280 275 273 278 280 288 291 283 261 256 267 265
343 348 357 211 261 311 312 331 97 215 216 237 265 278 277 319 312 280 276 197 248 225 219 175 232 246 257 256 265 258 253 260 266 275 283 288 288 290 290 294 274 258 261 260
359 351 307 270 285 300 256 249 240 176 225 203 242 288 313 308 284 309 262 307 281 254 185 227 222 239 225 214 214 213 236 257 272 280 285 291 290 280 282 287 285 274 268 266
326 311 304 304 261 224 241 224 185 230 286 161 280 311 296 293 263 262 247 264 222 255 119 247 257 287 128 167 210 266 272 269 285 291 295 296 292 282 275 276 281 284 277 269
326 353 322 261 191 232 228 193 191 206 212 291 319 312 302 254 239 260 258 238 246 66 231 251 278 92 154 180 301 297 283 278 286 298 303 305 301 292 274 270 272 280 287 278
296 287 290 233 184 234 255 343 328 353 303 320 316 302 280 278 245 293 268 243 263 250 263 268 34 139 186 319 321 317 309 297 299 304 312 317 318 305 280 265 269 275 280 272
278 268 246 231 276 248 244 274 284 266 308 312 315 285 243 257 256 148 298 236 233 216 332 30 67 151 312 327 328 322 314 307 305 314 318 322 328 326 315 281 268 270 269 241
252 242 263 243 261 253 249 258 269 290 300 304 267 259 257 233 279 218 212 265 331 7 344 336 338 313 292 301 317 315 316 314 312 313 312 320 330 337 340 348 301 256 235 245
248 247 246 265 281 278 284 280 272 283 293 272 284 254 317 17 9 310 352 359 340 333 327 310 301 306 303 308 317 311 313 313 313 313 312 316 328 335 343 339 326 287 222 262